Christchurch Aero AWS, New Zealand

11:10 AM NZDT on December 07, 2016 (GMT +1300)
Christchurch International

Weather History for NZCH - September, 2013

Change the Weather History Date:

Saturday, September 21, 2013

  Actual Average Record
Temperature  
Mean Temperature 52 °F -  
Max Temperature 60 °F 58 °F 71 °F (2004)
Min Temperature 44 °F 38 °F 28 °F (2005)
Degree Days  
Heating Degree Days 13    
Growing Degree Days 2 (Base 50)    
Moisture  
Dew Point 48 °F    
Average Humidity 78    
Maximum Humidity 100    
Minimum Humidity 52    
Precipitation  
Precipitation 0.00 in - - ()
Sea Level Pressure  
Sea Level Pressure 29.64 in    
Wind  
Wind Speed 8 mph ()    
Max Wind Speed 18 mph    
Max Gust Speed -    
Visibility 6.1 miles    
Events Rain    
Averages and records for this station are not official NWS values.
T = Trace of Precipitation, MM = Missing Value Source: Averaged Metar Reports

Daily Weather History Graph

Daily Weather History Graph

Search for Another Location

Airport or City:

Trip Planner

Search our weather history database for the weather conditions in past years. The results will help you decide how hot, cold, wet, or windy it might be!

Date:

Astronomy

Sep. 21, 2013 Rise Set
Actual Time 6:21 AM NZST 6:25 PM NZST
Civil Twilight 5:53 AM NZST 6:53 PM NZST
Nautical Twilight 5:19 AM NZST 7:27 PM NZST
Astronomical Twilight 4:45 AM NZST 8:01 PM NZST
Moon 8:26 PM NZST (9/21) 6:50 AM NZST (9/21)
Length of Visible Light 13h 00m
Length of Day
12h 03m
Full, 97% of the Moon is Illuminated
Sep 21
Full
Sep 27
Last Quarter
Oct 5
New
Oct 12
First Quarter
Oct 19
Full

Hourly Weather History & Observations

Time (NZST) Temp. Windchill Dew Point Humidity Pressure Visibility Wind Dir Wind Speed Gust Speed Precip Events Conditions
12:00 AM 44.6 °F 43.1 °F 44.6 °F 100% 29.65 in 6.2 mi NNW 3.5 mph - N/A   Scattered Clouds
12:30 AM 53.6 °F - 46.4 °F 77% 29.62 in 6.2 mi North 9.2 mph - N/A   Overcast
1:00 AM 55.4 °F - 44.6 °F 67% 29.62 in 6.2 mi North 8.1 mph - N/A   Overcast
1:30 AM 57.2 °F - 42.8 °F 59% 29.65 in 6.2 mi NNW 9.2 mph - N/A   Mostly Cloudy
2:00 AM 57.2 °F - 44.6 °F 63% 29.62 in 6.2 mi North 10.4 mph - N/A   Overcast
2:30 AM 59.0 °F - 42.8 °F 55% 29.62 in 6.2 mi North 13.8 mph - N/A   Overcast
3:00 AM 57.2 °F - 42.8 °F 59% 29.62 in 6.2 mi NNW 16.1 mph - N/A   Mostly Cloudy
3:30 AM 57.2 °F - 42.8 °F 59% 29.62 in 6.2 mi North 15.0 mph - N/A   Scattered Clouds
4:00 AM 59.0 °F - 42.8 °F 55% 29.59 in 6.2 mi NNW 18.4 mph - N/A   Mostly Cloudy
4:30 AM 59.0 °F - 42.8 °F 55% 29.62 in 6.2 mi North 16.1 mph - N/A   Mostly Cloudy
5:00 AM 59.0 °F - 44.6 °F 59% 29.62 in 6.2 mi North 13.8 mph - N/A   Scattered Clouds
5:30 AM 59.0 °F - 42.8 °F 55% 29.62 in 6.2 mi North 12.7 mph - N/A   Scattered Clouds
6:00 AM 60.8 °F - 42.8 °F 52% 29.62 in 6.2 mi NNW 11.5 mph - N/A   Overcast
6:30 AM 59.0 °F - 44.6 °F 59% 29.62 in 6.2 mi NNE 9.2 mph - N/A   Overcast
7:00 AM 55.4 °F - 44.6 °F 67% 29.62 in 6.2 mi NNE 9.2 mph - N/A   Overcast
7:30 AM 59.0 °F - 44.6 °F 59% 29.62 in 6.2 mi North 12.7 mph - N/A   Mostly Cloudy
8:00 AM 59.0 °F - 44.6 °F 59% 29.62 in 6.2 mi North 10.4 mph - N/A   Mostly Cloudy
8:30 AM 59.0 °F - 44.6 °F 59% 29.62 in 6.2 mi North 6.9 mph - N/A   Overcast
9:00 AM 59.0 °F - 44.6 °F 59% 29.62 in 6.2 mi NNW 9.2 mph - N/A   Mostly Cloudy
9:30 AM 59.0 °F - 44.6 °F 59% 29.62 in 6.2 mi NNE 4.6 mph - N/A   Overcast
10:00 AM 57.2 °F - 46.4 °F 67% 29.62 in 6.2 mi SE 6.9 mph - N/A   Overcast
10:30 AM 59.0 °F - 46.4 °F 63% 29.65 in 6.2 mi East 6.9 mph - N/A Rain Light Rain
11:00 AM 57.2 °F - 48.2 °F 72% 29.65 in 6.2 mi East 10.4 mph - N/A   Drizzle
11:30 AM 55.4 °F - 50.0 °F 82% 29.65 in 6.2 mi East 5.8 mph - N/A Rain Light Rain Showers
12:00 PM 55.4 °F - 51.8 °F 88% 29.65 in 6.2 mi ENE 4.6 mph - N/A Rain Light Rain
12:30 PM 55.4 °F - 53.6 °F 94% 29.65 in 6.2 mi NE 4.6 mph - N/A Rain Light Rain
1:00 PM 55.4 °F - 51.8 °F 88% 29.65 in 6.2 mi NNE 9.2 mph - N/A Rain Light Rain
1:30 PM 55.4 °F - 53.6 °F 94% 29.62 in 6.2 mi NNE 9.2 mph - N/A Rain Light Rain
2:00 PM 55.4 °F - 51.8 °F 88% 29.62 in 6.2 mi NNE 10.4 mph - N/A   Light Drizzle
2:30 PM 55.4 °F - 53.6 °F 94% 29.62 in 6.2 mi NNE 8.1 mph - N/A   Mostly Cloudy
3:00 PM 57.2 °F - 53.6 °F 88% 29.62 in 6.2 mi NE 9.2 mph - N/A   Mostly Cloudy
3:30 PM 57.2 °F - 51.8 °F 82% 29.62 in 6.2 mi ENE 4.6 mph - N/A   Mostly Cloudy
4:00 PM 57.2 °F - 51.8 °F 82% 29.62 in 6.2 mi East 5.8 mph - N/A   Mostly Cloudy
4:30 PM 55.4 °F - 51.8 °F 88% 29.62 in 6.2 mi East 4.6 mph - N/A   Overcast
5:00 PM 57.2 °F - 51.8 °F 82% 29.65 in 6.2 mi East 2.3 mph - N/A Rain Light Rain
5:30 PM 55.4 °F - 51.8 °F 88% 29.65 in 6.2 mi Calm Calm - N/A Rain Light Rain
6:00 PM 55.4 °F - 53.6 °F 94% 29.65 in 6.2 mi North 2.3 mph - N/A Rain Light Rain
6:30 PM 53.6 °F - 53.6 °F 100% 29.65 in 6.2 mi North 1.2 mph - N/A Rain Light Rain Showers
7:00 PM 51.8 °F - 51.8 °F 100% 29.65 in 6.2 mi NNE 3.5 mph - N/A   Overcast
7:30 PM 51.8 °F - 51.8 °F 100% 29.65 in 6.2 mi NE 3.5 mph - N/A   Overcast
8:00 PM 51.8 °F - 51.8 °F 100% 29.68 in 6.2 mi North 1.2 mph - N/A   Overcast
8:30 PM 53.6 °F - 51.8 °F 94% 29.68 in 6.2 mi East 4.6 mph - N/A   Light Drizzle
9:00 PM 53.6 °F - 51.8 °F 94% 29.68 in 4.3 mi ENE 6.9 mph - N/A Rain Light Rain Showers
9:30 PM 53.6 °F - 51.8 °F 94% 29.68 in 5.0 mi East 6.9 mph - N/A Rain Light Rain
10:00 PM 51.8 °F - 51.8 °F 100% 29.68 in 6.2 mi ENE 8.1 mph - N/A Rain Light Rain
10:30 PM 51.8 °F - 50.0 °F 94% 29.68 in 6.2 mi ENE 4.6 mph - N/A Rain Light Rain Showers
11:00 PM 51.8 °F - 50.0 °F 94% 29.68 in 6.2 mi ENE 4.6 mph - N/A Rain Light Rain Showers
11:30 PM 51.8 °F - 50.0 °F 94% 29.68 in 6.2 mi ENE 4.6 mph - N/A   Overcast